[[{"header":{"parameterUnit":"m.s-1","parameterCategory":1,"la1":30.2991,"la2":30.254,"lo1":-89.0895,"lo2":-89.0444,"dy":0.0017,"dx":0.0017,"nx":28,"ny":28,"refTime":"2025-01-11T03:00:00:Z","depth":0,"parameterNumber":2,"parameterNumberName":"U-component_of_WINDS"},"data":[0,0,0,0,0,0,0,0,0,0,0,0,0,0,0,0,0,0,0,0,0,0,0,0,0,0,0,0,0,0,0,0,0,0,0,0,0,0,0,0,0,0,0,0,0,0,0,0,0,0,0,0,0,0,0,0,0,0,1.4621,1.462,0,1.4607,1.4606,1.4606,1.4584,1.4583,1.4583,1.4583,1.4568,1.4568,1.4568,0,0,0,0,0,0,0,0,0,0,0,0,0,1.4628,1.4628,1.4621,1.462,1.462,1.4607,1.4606,1.4606,1.4584,1.4583,1.4583,1.4582,1.4568,1.4568,1.4568,0,0,0,0,0,0,0,0,0,0,0,0,0,1.4621,1.4628,1.4621,1.4607,1.4606,1.4607,1.4606,1.4606,1.4584,1.4583,1.4583,1.4582,1.4568,1.4568,1.4568,1.458,0,0,1.4568,1.4568,0,0,0,0,0,0,0,0,1.4621,1.462,1.461,1.4608,1.4607,1.4596,1.4604,1.4597,1.4584,1.4592,1.4583,1.4582,1.4578,1.4577,1.4575,1.4579,1.4578,1.4568,1.4568,1.4568,1.4568,0,0,0,0,0,0,0,1.4622,1.4621,1.4615,1.4609,1.4608,1.4602,1.4601,1.4602,1.4589,1.4592,1.459,1.4589,1.4577,1.4576,1.4575,1.4578,1.4568,1.4568,1.4568,1.4568,1.4592,1.4593,0,0,0,0,0,0,1.4624,1.4621,1.4615,1.4615,1.4613,1.4603,1.4601,1.46,1.4589,1.4586,1.4589,1.4588,1.4576,1.4575,1.4574,1.4588,1.4568,1.4568,1.4568,1.4592,1.4592,1.4593,0,0,0,0,0,0,1.4624,1.4624,1.4616,1.4618,1.4616,1.4603,1.4603,1.46,1.4599,1.4587,1.4584,1.459,1.4575,1.4574,1.4579,1.4588,1.4568,1.4568,1.4591,1.4592,1.4593,1.4616,0,0,0,0,0,0,1.4625,1.4624,1.4628,1.4618,1.4616,1.4621,1.4603,1.4601,1.4599,1.4597,1.4587,1.4585,1.4575,1.4579,1.4579,1.4587,1.4567,1.459,1.4591,1.4592,1.4615,1.4618,1.4621,0,0,0,0,0,1.4625,1.4635,1.4629,1.4628,1.4621,1.4621,1.462,1.4609,1.46,1.4604,1.4597,1.4585,1.4587,1.458,1.4579,1.4588,1.4589,1.4591,1.4592,1.4613,1.4617,1.4621,0,0,0,0,0,0,1.4646,1.4633,1.4626,1.4633,1.4629,1.4617,1.4622,1.4613,1.4611,1.4609,1.4594,1.4592,1.4599,1.4594,1.4586,1.4599,1.4586,1.4588,1.4602,1.4606,1.4609,1.461,1.4567,0,0,0,0,0,1.4652,1.4653,1.4642,1.4649,1.4647,1.4635,1.4635,1.4627,1.4621,1.4619,1.4611,1.4606,1.4606,1.4606,1.4604,1.4614,1.4612,1.462,1.4623,1.4625,1.4627,1.4632,1.4636,1.4598,1.4598,1.4598,0,0,1.4663,1.4657,1.4658,1.4653,1.4649,1.465,1.4634,1.4636,1.4637,1.4619,1.4623,1.4618,1.4611,1.4619,1.4621,1.4614,1.4637,1.4627,1.4629,1.4629,1.4634,1.4637,1.4641,1.4599,1.4599,1.4599,0,0,1.4685,1.468,1.4686,1.4682,1.4675,1.4668,1.4669,1.466,1.4656,1.466,1.4646,1.4648,1.4647,1.4643,1.4641,1.4663,1.4653,1.4663,1.4679,1.4684,1.4687,1.469,1.4698,1.4701,1.4664,1.4664,1.4665,0,1.47,1.4702,1.469,1.4693,1.4692,1.4676,1.4682,1.4679,1.4673,1.4672,1.4665,1.4664,1.4658,1.4665,1.4671,1.4669,1.4671,1.4664,1.4688,1.469,1.4692,1.47,1.4703,1.4666,1.4666,1.4666,1.4665,0,1.4721,1.4723,1.4728,1.4723,1.4722,1.4727,1.4716,1.4716,1.4709,1.4702,1.4706,1.47,1.4697,1.4698,1.469,1.4704,1.47,1.469,1.4677,1.4697,1.4704,1.4707,1.4668,1.4667,1.4667,1.4666,0,0,1.4755,1.4744,1.4746,1.4744,1.4736,1.4737,1.4742,1.4739,1.4741,1.4737,1.474,1.4741,1.4732,1.473,1.4722,1.4726,1.4745,1.4716,1.4716,1.4722,1.476,1.4767,1.4771,1.4738,1.4739,1.4739,1.4761,0,1.4775,1.4782,1.4772,1.4781,1.4782,1.4768,1.4772,1.4768,1.4762,1.4763,1.4757,1.4757,1.4746,1.4744,1.4749,1.4742,1.4752,1.474,1.4741,1.4742,1.4743,1.4774,1.4782,1.4802,1.4763,1.4764,1.4764,0,1.4799,1.4797,1.4807,1.4799,1.48,1.4803,1.4801,1.4802,1.4797,1.4793,1.4791,1.4782,1.4786,1.4773,1.4779,1.4771,1.4771,1.4768,1.4768,1.4768,1.4754,1.4775,1.4809,1.4812,1.4768,1.4768,1.4768,0,1.4823,1.4823,1.4829,1.4827,1.4819,1.4822,1.4819,1.4813,1.4813,1.4811,1.4811,1.481,1.4809,1.4808,1.4799,1.4791,1.4806,1.4792,1.4802,1.4803,1.4806,1.4806,1.484,1.4806,1.4806,1.4806,1.4806,0,1.4847,1.4853,1.484,1.4843,1.485,1.4839,1.4846,1.4841,1.4837,1.484,1.4828,1.483,1.4818,1.4819,1.4812,1.4818,1.4818,1.4814,1.4812,1.4815,1.4816,1.4815,1.4813,1.4807,1.4807,1.4807,1.4807,0,1.4874,1.4866,1.4871,1.4863,1.4861,1.4867,1.486,1.4863,1.4857,1.4861,1.4861,1.4851,1.4852,1.4843,1.4842,1.4837,1.4847,1.4843,1.4849,1.4847,1.4858,1.4857,1.4893,1.4897,1.4861,1.4861,1.4861,0,1.489,1.4894,1.4887,1.4888,1.4886,1.4887,1.4887,1.4877,1.4877,1.4873,1.4877,1.4877,1.4877,1.488,1.4873,1.4872,1.4868,1.488,1.4868,1.4871,1.4868,1.4868,1.4869,1.4883,1.4883,1.4884,1.4884,0,1.4918,1.4914,1.4914,1.4914,1.4914,1.4913,1.4911,1.4912,1.4901,1.4902,1.4904,1.4904,1.4903,1.4904,1.4903,1.4899,1.489,1.4888,1.4891,1.4894,1.4897,1.4896,1.4856,1.4887,1.4887,1.4887,1.4887,1.4887,1.494,1.4944,1.494,1.4941,1.4939,1.4937,1.494,1.4935,1.4936,1.4935,1.4929,1.4932,1.4928,1.4925,1.4923,1.4925,1.4919,1.4922,1.4923,1.4924,1.4926,1.4897,1.4925,1.4924,1.4924,1.4924,1.4924,0,1.4968,1.4965,1.4966,1.4964,1.4965,1.4957,1.4955,1.4956,1.4959,1.4956,1.4956,1.4959,1.4959,1.4953,1.4953,1.4956,1.4952,1.4957,1.4956,1.4956,1.4931,1.4929,1.496,1.496,1.496,1.496,1.496,1.496,1.4983,1.4989,1.4985,1.499,1.4987,1.4989,1.4989,1.4988,1.4986,1.4989,1.499,1.4985,1.4981,1.4981,1.4982,1.498,1.4981,1.4987,1.4984,1.4961,1.4957,1.4954,1.4952,1.4987,1.4987,1.5008,1.5008,1.5008]},{"header":{"parameterUnit":"m.s-1","parameterCategory":1,"la1":30.2991,"la2":30.254,"lo1":-89.0895,"lo2":-89.0444,"dy":0.0017,"dx":0.0017,"nx":28,"ny":28,"refTime":"2025-01-11T03:00:00:Z","depth":0,"parameterNumber":3,"parameterNumberName":"V-component_of_WINDS"},"data":[0,0,0,0,0,0,0,0,0,0,0,0,0,0,0,0,0,0,0,0,0,0,0,0,0,0,0,0,0,0,0,0,0,0,0,0,0,0,0,0,0,0,0,0,0,0,0,0,0,0,0,0,0,0,0,0,0,0,-3.7645,-3.7647,0,-3.7793,-3.7794,-3.7796,-3.783,-3.7829,-3.7828,-3.7827,-3.7976,-3.7981,-3.7985,0,0,0,0,0,0,0,0,0,0,0,0,0,-3.7393,-3.7397,-3.7645,-3.7647,-3.7649,-3.7792,-3.7794,-3.7796,-3.783,-3.7829,-3.7828,-3.7827,-3.7974,-3.798,-3.7986,0,0,0,0,0,0,0,0,0,0,0,0,0,-3.7517,-3.7399,-3.7645,-3.7683,-3.7688,-3.7792,-3.7794,-3.7797,-3.7831,-3.7829,-3.7828,-3.7826,-3.7972,-3.7979,-3.7987,-3.8062,0,0,-3.8009,-3.8012,0,0,0,0,0,0,0,0,-3.751,-3.7527,-3.7676,-3.7681,-3.7686,-3.7791,-3.776,-3.7886,-3.7831,-3.7776,-3.7827,-3.7825,-3.7916,-3.7927,-3.7958,-3.8069,-3.8076,-3.801,-3.8014,-3.8017,-3.8019,0,0,0,0,0,0,0,-3.7502,-3.7521,-3.7703,-3.7678,-3.7684,-3.7693,-3.7709,-3.7784,-3.7853,-3.7781,-3.7784,-3.7801,-3.7918,-3.7951,-3.7962,-3.8078,-3.801,-3.8016,-3.8021,-3.8024,-3.826,-3.8262,0,0,0,0,0,0,-3.7487,-3.7513,-3.7699,-3.7708,-3.7593,-3.7699,-3.7717,-3.7759,-3.7852,-3.7865,-3.7802,-3.7802,-3.7939,-3.7953,-3.7967,-3.8064,-3.8017,-3.8024,-3.8028,-3.8258,-3.826,-3.8262,0,0,0,0,0,0,-3.7481,-3.7503,-3.7693,-3.7611,-3.7636,-3.7705,-3.7752,-3.7763,-3.7796,-3.7868,-3.788,-3.7823,-3.7939,-3.7957,-3.8039,-3.8069,-3.8028,-3.8034,-3.8256,-3.8259,-3.8261,-3.8255,0,0,0,0,0,0,-3.7474,-3.7501,-3.753,-3.7612,-3.764,-3.7762,-3.7754,-3.7767,-3.7809,-3.781,-3.7891,-3.7903,-3.7939,-3.8028,-3.8046,-3.8079,-3.804,-3.8254,-3.8257,-3.8261,-3.8253,-3.8257,-3.8261,0,0,0,0,0,-3.7464,-3.7521,-3.7531,-3.7553,-3.7679,-3.7764,-3.778,-3.7821,-3.7811,-3.7841,-3.7888,-3.79,-3.8063,-3.8036,-3.8057,-3.8092,-3.8252,-3.8256,-3.826,-3.8251,-3.8257,-3.8261,0,0,0,0,0,0,-3.744,-3.7533,-3.7545,-3.763,-3.7689,-3.7769,-3.7809,-3.7825,-3.7888,-3.7886,-3.7934,-3.7952,-3.8031,-3.8069,-3.8038,-3.8171,-3.8157,-3.8166,-3.8143,-3.8149,-3.8153,-3.8142,-3.8046,0,0,0,0,0,-3.7445,-3.7507,-3.7584,-3.7652,-3.7681,-3.774,-3.7778,-3.7805,-3.7867,-3.7892,-3.7945,-3.8005,-3.807,-3.8111,-3.8174,-3.8259,-3.8277,-3.8293,-3.8297,-3.83,-3.8307,-3.8357,-3.8365,-3.8276,-3.8276,-3.8276,0,0,-3.7455,-3.7513,-3.7549,-3.7648,-3.7697,-3.776,-3.776,-3.7826,-3.7874,-3.7902,-3.7984,-3.8024,-3.8094,-3.8178,-3.8217,-3.8212,-3.8336,-3.8306,-3.8307,-3.8313,-3.8362,-3.837,-3.8378,-3.8279,-3.8279,-3.8278,0,0,-3.7506,-3.7555,-3.7618,-3.7668,-3.7742,-3.7781,-3.7796,-3.7875,-3.7904,-3.7986,-3.8009,-3.8066,-3.8176,-3.8226,-3.8265,-3.8337,-3.8351,-3.8356,-3.8378,-3.8425,-3.8432,-3.8439,-3.8466,-3.8475,-3.8363,-3.8363,-3.8363,0,-3.7509,-3.7605,-3.7648,-3.7715,-3.7758,-3.7788,-3.7852,-3.7898,-3.7989,-3.8018,-3.8011,-3.8152,-3.8201,-3.8298,-3.8315,-3.8346,-3.8365,-3.8347,-3.8428,-3.8435,-3.8441,-3.8468,-3.8478,-3.8363,-3.8363,-3.8363,-3.8363,0,-3.7606,-3.7672,-3.7714,-3.7803,-3.7851,-3.7915,-3.7969,-3.8012,-3.8035,-3.8075,-3.8159,-3.822,-3.8297,-3.8321,-3.8343,-3.8422,-3.8417,-3.8418,-3.8406,-3.8449,-3.8475,-3.8485,-3.8363,-3.8363,-3.8363,-3.8363,0,0,-3.7645,-3.7758,-3.7773,-3.7814,-3.7899,-3.7952,-3.8018,-3.8095,-3.8132,-3.8193,-3.8251,-3.8344,-3.8347,-3.8392,-3.842,-3.8461,-3.8517,-3.8458,-3.8461,-3.8468,-3.8609,-3.8608,-3.8619,-3.8526,-3.8528,-3.853,-3.8603,0,-3.7707,-3.7828,-3.787,-3.7969,-3.8032,-3.8062,-3.812,-3.8179,-3.8218,-3.8277,-3.832,-3.8386,-3.8384,-3.8411,-3.8454,-3.8501,-3.8546,-3.8496,-3.8581,-3.8583,-3.8564,-3.8632,-3.8631,-3.8698,-3.8613,-3.8615,-3.8616,0,-3.7796,-3.7861,-3.7967,-3.8047,-3.8074,-3.8126,-3.8201,-3.8256,-3.8323,-3.8349,-3.84,-3.8426,-3.8497,-3.848,-3.8579,-3.8544,-3.8581,-3.861,-3.8614,-3.8624,-3.8603,-3.8646,-3.8719,-3.873,-3.8632,-3.8631,-3.863,0,-3.7816,-3.793,-3.8009,-3.8043,-3.8137,-3.8173,-3.8213,-3.8279,-3.8323,-3.8388,-3.8417,-3.8489,-3.8528,-3.8583,-3.8628,-3.8611,-3.8724,-3.8709,-3.8748,-3.8747,-3.8771,-3.8769,-3.8853,-3.8792,-3.8792,-3.8792,-3.8792,0,-3.7882,-3.7946,-3.8019,-3.8068,-3.8141,-3.8188,-3.826,-3.8302,-3.8361,-3.8418,-3.8448,-3.8501,-3.8556,-3.8617,-3.8652,-3.873,-3.8747,-3.877,-3.8779,-3.8768,-3.8766,-3.8794,-3.8791,-3.8795,-3.8794,-3.8794,-3.8793,0,-3.7917,-3.7968,-3.8056,-3.8139,-3.8161,-3.8211,-3.8282,-3.833,-3.8371,-3.8444,-3.8464,-3.8528,-3.8601,-3.8651,-3.8744,-3.8768,-3.8852,-3.886,-3.883,-3.8835,-3.8871,-3.8867,-3.8977,-3.8995,-3.8921,-3.8921,-3.8922,0,-3.7956,-3.8006,-3.8095,-3.8136,-3.8177,-3.8243,-3.8288,-3.8337,-3.8383,-3.8465,-3.8504,-3.8579,-3.8642,-3.8758,-3.8813,-3.8885,-3.8895,-3.8928,-3.8906,-3.8894,-3.8897,-3.8894,-3.89,-3.8932,-3.8933,-3.8933,-3.8933,0,-3.8021,-3.8044,-3.8109,-3.8184,-3.8238,-3.8298,-3.8359,-3.8391,-3.845,-3.8501,-3.8577,-3.8626,-3.8722,-3.8797,-3.8875,-3.8916,-3.8935,-3.894,-3.8953,-3.8943,-3.8925,-3.8937,-3.8841,-3.8937,-3.8937,-3.8937,-3.8937,-3.8936,-3.806,-3.8107,-3.8177,-3.8249,-3.83,-3.8357,-3.8408,-3.8456,-3.852,-3.8603,-3.8628,-3.8707,-3.8774,-3.8881,-3.8924,-3.8987,-3.8984,-3.9002,-3.9007,-3.9011,-3.9012,-3.8914,-3.9001,-3.9001,-3.9001,-3.9,-3.9,0,-3.8128,-3.8175,-3.8241,-3.8326,-3.8383,-3.8396,-3.8465,-3.8511,-3.8581,-3.8643,-3.8705,-3.8793,-3.8866,-3.8927,-3.9003,-3.9042,-3.9052,-3.906,-3.9058,-3.9068,-3.9009,-3.8991,-3.905,-3.905,-3.905,-3.905,-3.905,-3.905,-3.817,-3.8251,-3.8283,-3.839,-3.8437,-3.8515,-3.8554,-3.8606,-3.8656,-3.8754,-3.8815,-3.8855,-3.8917,-3.8998,-3.9066,-3.9082,-3.9109,-3.9115,-3.9133,-3.9077,-3.9072,-3.9066,-3.905,-3.912,-3.912,-3.9187,-3.9187,-3.9188]}]]